"Sample Date","Sample Time","Sensor Name","Sample Value","Units","Flow Rate","Sample Interval","Sample Volume","Laser Status","Number Channels","Micron Size 0","Counts/Channel 0","Micron Size 1","Counts/Channel 1","Micron Size 2","Counts/Channel 2","Micron Size 3","Counts/Channel 3","Micron Size 4","Counts/Channel 4","Micron Size 5","Counts/Channel 5","Micron Size 6","Counts/Channel 6","Micron Size 7","Counts/Channel 7","Micron Size 8","Counts/Channel 8","Micron Size 9","Counts/Channel 9","Micron Size 10","Counts/Channel 10","Micron Size 11","Counts/Channel 11","Micron Size 12","Counts/Channel 12","Micron Size 13","Counts/Channel 13","Micron Size 14","Counts/Channel 14","Micron Size 15","Counts/Channel 15","Micron Size 16","Counts/Channel 16","Micron Size 17","Counts/Channel 17","Micron Size 18","Counts/Channel 18","Micron Size 19","Counts/Channel 19","Micron Size 20","Counts/Channel 20","Micron Size 21","Counts/Channel 21","Micron Size 22","Counts/Channel 22","Micron Size 23","Counts/Channel 23","Micron Size 24","Counts/Channel 24","Micron Size 25","Counts/Channel 25","Micron Size 26","Counts/Channel 26","Micron Size 27","Counts/Channel 27","Micron Size 28","Counts/Channel 28","Micron Size 29","Counts/Channel 29","Micron Size 30","Counts/Channel 30","Micron Size 31","Counts/Channel 31"
"07/04/06","07:00:01","AMMA06",63212.000,"cc",28327.455,6.00,2832.746,1,6,0.100,31904.000,0.200,26105.000,0.300,3590.000,0.500,966.000,1.000,645.000,5.000,2.000
"07/04/06","07:00:07","AMMA06",62961.000,"cc",28378.641,6.00,2837.864,1,6,0.100,31994.000,0.200,25806.000,0.300,3567.000,0.500,952.000,1.000,640.000,5.000,2.000
"07/04/06","07:00:13","AMMA06",62678.000,"cc",28268.756,6.00,2826.876,1,6,0.100,31599.000,0.200,25937.000,0.300,3505.000,0.500,998.000,1.000,639.000,5.000,0
"07/04/06","07:00:19","AMMA06",63102.000,"cc",28316.152,6.00,2831.616,1,6,0.100,31906.000,0.200,25987.000,0.300,3625.000,0.500,963.000,1.000,621.000,5.000,0
"07/04/06","07:00:25","AMMA06",62939.000,"cc",28329.688,6.00,2832.969,1,6,0.100,31745.000,0.200,26104.000,0.300,3500.000,0.500,969.000,1.000,620.000,5.000,1.000
"07/04/06","07:00:31","AMMA06",62657.000,"cc",28310.889,6.00,2831.089,1,6,0.100,31455.000,0.200,25983.000,0.300,3574.000,0.500,993.000,1.000,652.000,5.000,0
"07/04/06","07:00:37","AMMA06",62486.000,"cc",28327.010,6.00,2832.701,1,6,0.100,31435.000,0.200,25973.000,0.300,3436.000,0.500,1029.000,1.000,612.000,5.000,1.000
"07/04/06","07:00:43","AMMA06",62860.000,"cc",28338.680,6.00,2833.868,1,6,0.100,31655.000,0.200,25960.000,0.300,3563.000,0.500,1009.000,1.000,672.000,5.000,1.000
"07/04/06","07:00:49","AMMA06",62249.000,"cc",28337.801,6.00,2833.780,1,6,0.100,31406.000,0.200,25658.000,0.300,3559.000,0.500,992.000,1.000,633.000,5.000,1.000
"07/04/06","07:00:55","AMMA06",62444.000,"cc",28311.133,6.00,2831.114,1,6,0.100,31337.000,0.200,26023.000,0.300,3449.000,0.500,1015.000,1.000,620.000,5.000,0
"07/04/06","07:01:01","AMMA06",62898.000,"cc",28277.213,6.00,2827.721,1,6,0.100,31761.000,0.200,25992.000,0.300,3551.000,0.500,939.000,1.000,654.000,5.000,1.000
"07/04/06","07:01:07","AMMA06",62911.000,"cc",28332.684,6.00,2833.269,1,6,0.100,31641.000,0.200,26151.000,0.300,3541.000,0.500,980.000,1.000,598.000,5.000,0
"07/04/06","07:01:13","AMMA06",62466.000,"cc",28286.518,6.00,2828.652,1,6,0.100,31332.000,0.200,25903.000,0.300,3558.000,0.500,1011.000,1.000,662.000,5.000,0
"07/04/06","07:01:19","AMMA06",62973.000,"cc",28384.686,6.00,2838.469,1,6,0.100,31589.000,0.200,26192.000,0.300,3587.000,0.500,965.000,1.000,639.000,5.000,1.000
"07/04/06","07:01:25","AMMA06",62204.000,"cc",28306.002,6.00,2830.600,1,6,0.100,31104.000,0.200,25859.000,0.300,3586.000,0.500,991.000,1.000,664.000,5.000,0
"07/04/06","07:01:31","AMMA06",62355.000,"cc",28341.498,6.00,2834.150,1,6,0.100,31212.000,0.200,25802.000,0.300,3703.000,0.500,990.000,1.000,648.000,5.000,0
"07/04/06","07:01:37","AMMA06",62853.000,"cc",28334.203,6.00,2833.420,1,6,0.100,31305.000,0.200,26302.000,0.300,3680.000,0.500,957.000,1.000,608.000,5.000,1.000
"07/04/06","07:01:43","AMMA06",62969.000,"cc",28326.188,6.00,2832.619,1,6,0.100,31498.000,0.200,26091.000,0.300,3760.000,0.500,988.000,1.000,632.000,5.000,0
"07/04/06","07:01:49","AMMA06",63383.000,"cc",28293.816,6.00,2829.382,1,6,0.100,31605.000,0.200,26444.000,0.300,3728.000,0.500,961.000,1.000,644.000,5.000,1.000
"07/04/06","07:01:55","AMMA06",62767.000,"cc",28273.145,6.00,2827.315,1,6,0.100,31418.000,0.200,26230.000,0.300,3581.000,0.500,940.000,1.000,598.000,5.000,0
"07/04/06","07:02:01","AMMA06",62973.000,"cc",28320.426,6.00,2832.043,1,6,0.100,31445.000,0.200,26203.000,0.300,3749.000,0.500,954.000,1.000,622.000,5.000,0
"07/04/06","07:02:07","AMMA06",62771.000,"cc",28315.723,6.00,2831.573,1,6,0.100,31454.000,0.200,26099.000,0.300,3638.000,0.500,990.000,1.000,590.000,5.000,0
"07/04/06","07:02:13","AMMA06",63122.000,"cc",28335.748,6.00,2833.575,1,6,0.100,31747.000,0.200,26129.000,0.300,3654.000,0.500,976.000,1.000,616.000,5.000,0
"07/04/06","07:02:19","AMMA06",62973.000,"cc",28316.256,6.00,2831.626,1,6,0.100,31344.000,0.200,26164.000,0.300,3791.000,0.500,1025.000,1.000,649.000,5.000,0
"07/04/06","07:02:25","AMMA06",63377.000,"cc",28278.090,6.00,2827.809,1,6,0.100,31623.000,0.200,26466.000,0.300,3720.000,0.500,954.000,1.000,614.000,5.000,0
"07/04/06","07:02:31","AMMA06",63170.000,"cc",28372.320,6.00,2837.232,1,6,0.100,31727.000,0.200,26207.000,0.300,3654.000,0.500,922.000,1.000,660.000,5.000,0
"07/04/06","07:02:37","AMMA06",62900.000,"cc",28341.729,6.00,2834.173,1,6,0.100,31552.000,0.200,26252.000,0.300,3545.000,0.500,917.000,1.000,634.000,5.000,0
"07/04/06","07:02:43","AMMA06",62736.000,"cc",28324.373,6.00,2832.438,1,6,0.100,31416.000,0.200,25962.000,0.300,3664.000,0.500,1015.000,1.000,679.000,5.000,0
"07/04/06","07:02:49","AMMA06",63053.000,"cc",28290.281,6.00,2829.028,1,6,0.100,31536.000,0.200,26193.000,0.300,3710.000,0.500,1013.000,1.000,601.000,5.000,0
"07/04/06","07:02:55","AMMA06",62642.000,"cc",28336.783,6.00,2833.679,1,6,0.100,31583.000,0.200,25763.000,0.300,3635.000,0.500,1013.000,1.000,648.000,5.000,0
"07/04/06","07:03:01","AMMA06",62544.000,"cc",28319.121,6.00,2831.912,1,6,0.100,31636.000,0.200,25642.000,0.300,3622.000,0.500,1002.000,1.000,640.000,5.000,2.000
"07/04/06","07:03:07","AMMA06",62421.000,"cc",28303.764,6.00,2830.377,1,6,0.100,31451.000,0.200,25762.000,0.300,3655.000,0.500,973.000,1.000,580.000,5.000,0
"07/04/06","07:03:13","AMMA06",62202.000,"cc",28308.096,6.00,2830.810,1,6,0.100,31384.000,0.200,25738.000,0.300,3558.000,0.500,910.000,1.000,611.000,5.000,1.000
"07/04/06","07:03:19","AMMA06",62451.000,"cc",28296.041,6.00,2829.604,1,6,0.100,31524.000,0.200,25611.000,0.300,3722.000,0.500,1001.000,1.000,593.000,5.000,0
"07/04/06","07:03:25","AMMA06",62540.000,"cc",28302.283,6.00,2830.229,1,6,0.100,31301.000,0.200,25906.000,0.300,3713.000,0.500,989.000,1.000,630.000,5.000,1.000
"07/04/06","07:03:31","AMMA06",62636.000,"cc",28297.057,6.00,2829.706,1,6,0.100,31346.000,0.200,26026.000,0.300,3700.000,0.500,921.000,1.000,642.000,5.000,1.000
"07/04/06","07:03:37","AMMA06",62435.000,"cc",28307.322,6.00,2830.732,1,6,0.100,31397.000,0.200,25835.000,0.300,3636.000,0.500,944.000,1.000,620.000,5.000,3.000
"07/04/06","07:03:43","AMMA06",63060.000,"cc",28316.758,6.00,2831.676,1,6,0.100,31687.000,0.200,26132.000,0.300,3685.000,0.500,944.000,1.000,611.000,5.000,1.000
"07/04/06","07:03:49","AMMA06",63291.000,"cc",28318.832,6.00,2831.883,1,6,0.100,32033.000,0.200,25986.000,0.300,3642.000,0.500,1018.000,1.000,612.000,5.000,0
"07/04/06","07:03:55","AMMA06",62750.000,"cc",28368.461,6.00,2836.846,1,6,0.100,31698.000,0.200,25923.000,0.300,3613.000,0.500,907.000,1.000,609.000,5.000,0
"07/04/06","07:04:01","AMMA06",62826.000,"cc",28276.041,6.00,2827.604,1,6,0.100,31738.000,0.200,25990.000,0.300,3607.000,0.500,920.000,1.000,570.000,5.000,1.000
"07/04/06","07:04:07","AMMA06",62874.000,"cc",28324.371,6.00,2832.437,1,6,0.100,31678.000,0.200,25929.000,0.300,3721.000,0.500,957.000,1.000,589.000,5.000,0
"07/04/06","07:04:13","AMMA06",62658.000,"cc",28351.453,6.00,2835.146,1,6,0.100,31754.000,0.200,25706.000,0.300,3588.000,0.500,981.000,1.000,629.000,5.000,0
"07/04/06","07:04:19","AMMA06",62215.000,"cc",28296.084,6.00,2829.609,1,6,0.100,31313.000,0.200,25619.000,0.300,3711.000,0.500,963.000,1.000,609.000,5.000,0
"07/04/06","07:04:25","AMMA06",62476.000,"cc",28318.336,6.00,2831.834,1,6,0.100,31618.000,0.200,25650.000,0.300,3648.000,0.500,932.000,1.000,628.000,5.000,0
"07/04/06","07:04:31","AMMA06",62634.000,"cc",28319.215,6.00,2831.922,1,6,0.100,31635.000,0.200,25684.000,0.300,3759.000,0.500,908.000,1.000,648.000,5.000,0
"07/04/06","07:04:37","AMMA06",62454.000,"cc",28285.897,6.00,2828.590,1,6,0.100,31527.000,0.200,25700.000,0.300,3642.000,0.500,972.000,1.000,613.000,5.000,0
"07/04/06","07:04:43","AMMA06",62926.000,"cc",28310.961,6.00,2831.096,1,6,0.100,31661.000,0.200,25950.000,0.300,3737.000,0.500,975.000,1.000,603.000,5.000,0
"07/04/06","07:04:49","AMMA06",62414.000,"cc",28335.445,6.00,2833.545,1,6,0.100,31454.000,0.200,25620.000,0.300,3797.000,0.500,951.000,1.000,590.000,5.000,2.000
"07/04/06","07:04:55","AMMA06",63428.000,"cc",28321.996,6.00,2832.200,1,6,0.100,32154.000,0.200,25999.000,0.300,3696.000,0.500,971.000,1.000,607.000,5.000,1.000
"07/04/06","07:05:01","AMMA06",62837.000,"cc",28337.992,6.00,2833.799,1,6,0.100,31582.000,0.200,25965.000,0.300,3732.000,0.500,951.000,1.000,607.000,5.000,0
"07/04/06","07:05:07","AMMA06",62818.000,"cc",28271.684,6.00,2827.169,1,6,0.100,31594.000,0.200,25760.000,0.300,3834.000,0.500,982.000,1.000,648.000,5.000,0
"07/04/06","07:05:13","AMMA06",62646.000,"cc",28326.424,6.00,2832.643,1,6,0.100,31648.000,0.200,25690.000,0.300,3784.000,0.500,919.000,1.000,603.000,5.000,2.000
"07/04/06","07:05:19","AMMA06",63067.000,"cc",28272.856,6.00,2827.286,1,6,0.100,31607.000,0.200,26066.000,0.300,3803.000,0.500,974.000,1.000,616.000,5.000,1.000
"07/04/06","07:05:25","AMMA06",62785.000,"cc",28290.381,6.00,2829.038,1,6,0.100,31659.000,0.200,25823.000,0.300,3775.000,0.500,942.000,1.000,585.000,5.000,1.000
"07/04/06","07:05:31","AMMA06",62796.000,"cc",28369.438,6.00,2836.944,1,6,0.100,31610.000,0.200,25872.000,0.300,3756.000,0.500,941.000,1.000,616.000,5.000,1.000
"07/04/06","07:05:37","AMMA06",62913.000,"cc",28341.072,6.00,2834.107,1,6,0.100,31587.000,0.200,26056.000,0.300,3733.000,0.500,958.000,1.000,579.000,5.000,0
"07/04/06","07:05:43","AMMA06",62861.000,"cc",28303.066,6.00,2830.307,1,6,0.100,31716.000,0.200,25858.000,0.300,3674.000,0.500,961.000,1.000,652.000,5.000,0
"07/04/06","07:05:49","AMMA06",63220.000,"cc",28402.982,6.00,2840.298,1,6,0.100,32167.000,0.200,25754.000,0.300,3711.000,0.500,968.000,1.000,620.000,5.000,0
"07/04/06","07:05:55","AMMA06",62940.000,"cc",28330.191,6.00,2833.019,1,6,0.100,31781.000,0.200,25875.000,0.300,3680.000,0.500,973.000,1.000,630.000,5.000,1.000
"07/04/06","07:06:01","AMMA06",63104.000,"cc",28302.631,6.00,2830.263,1,6,0.100,31728.000,0.200,26115.000,0.300,3684.000,0.500,940.000,1.000,637.000,5.000,0
"07/04/06","07:06:07","AMMA06",62512.000,"cc",28337.973,6.00,2833.797,1,6,0.100,31698.000,0.200,25620.000,0.300,3630.000,0.500,926.000,1.000,637.000,5.000,1.000
"07/04/06","07:06:13","AMMA06",62701.000,"cc",28249.430,6.00,2824.943,1,6,0.100,31551.000,0.200,25825.000,0.300,3717.000,0.500,973.000,1.000,635.000,5.000,0
"07/04/06","07:06:19","AMMA06",62827.000,"cc",28297.445,6.00,2829.745,1,6,0.100,31771.000,0.200,25733.000,0.300,3747.000,0.500,949.000,1.000,627.000,5.000,0
"07/04/06","07:06:25","AMMA06",62849.000,"cc",28345.473,6.00,2834.547,1,6,0.100,31692.000,0.200,25940.000,0.300,3739.000,0.500,928.000,1.000,548.000,5.000,2.000
"07/04/06","07:06:31","AMMA06",62608.000,"cc",28326.611,6.00,2832.661,1,6,0.100,31557.000,0.200,25712.000,0.300,3690.000,0.500,979.000,1.000,670.000,5.000,0
"07/04/06","07:06:37","AMMA06",62039.000,"cc",28340.943,6.00,2834.095,1,6,0.100,31185.000,0.200,25570.000,0.300,3710.000,0.500,956.000,1.000,618.000,5.000,0
"07/04/06","07:06:43","AMMA06",62752.000,"cc",28293.422,6.00,2829.342,1,6,0.100,31682.000,0.200,25744.000,0.300,3697.000,0.500,1004.000,1.000,625.000,5.000,0
"07/04/06","07:06:49","AMMA06",62644.000,"cc",28328.465,6.00,2832.847,1,6,0.100,31717.000,0.200,25550.000,0.300,3788.000,0.500,999.000,1.000,590.000,5.000,0
"07/04/06","07:06:55","AMMA06",62690.000,"cc",28284.975,6.00,2828.498,1,6,0.100,31818.000,0.200,25438.000,0.300,3836.000,0.500,983.000,1.000,615.000,5.000,0
"07/04/06","07:07:01","AMMA06",62627.000,"cc",28322.152,6.00,2832.215,1,6,0.100,31943.000,0.200,25398.000,0.300,3692.000,0.500,981.000,1.000,613.000,5.000,0
"07/04/06","07:07:07","AMMA06",62297.000,"cc",28294.443,6.00,2829.445,1,6,0.100,31940.000,0.200,25056.000,0.300,3743.000,0.500,933.000,1.000,625.000,5.000,0
"07/04/06","07:07:13","AMMA06",62374.000,"cc",28314.168,6.00,2831.417,1,6,0.100,31888.000,0.200,25174.000,0.300,3753.000,0.500,935.000,1.000,624.000,5.000,0
"07/04/06","07:07:19","AMMA06",62370.000,"cc",28314.648,6.00,2831.465,1,6,0.100,31656.000,0.200,25502.000,0.300,3656.000,0.500,946.000,1.000,610.000,5.000,0
"07/04/06","07:07:25","AMMA06",62783.000,"cc",28313.051,6.00,2831.305,1,6,0.100,32138.000,0.200,25492.000,0.300,3677.000,0.500,923.000,1.000,553.000,5.000,0
"07/04/06","07:07:31","AMMA06",62322.000,"cc",28307.875,6.00,2830.788,1,6,0.100,31796.000,0.200,25320.000,0.300,3695.000,0.500,939.000,1.000,572.000,5.000,0
"07/04/06","07:07:37","AMMA06",62216.000,"cc",28355.535,6.00,2835.554,1,6,0.100,31858.000,0.200,25138.000,0.300,3682.000,0.500,918.000,1.000,620.000,5.000,0
"07/04/06","07:07:43","AMMA06",62610.000,"cc",28320.356,6.00,2832.036,1,6,0.100,31826.000,0.200,25611.000,0.300,3650.000,0.500,924.000,1.000,599.000,5.000,0
"07/04/06","07:07:49","AMMA06",62291.000,"cc",28332.965,6.00,2833.297,1,6,0.100,31874.000,0.200,25289.000,0.300,3581.000,0.500,957.000,1.000,590.000,5.000,0
"07/04/06","07:07:55","AMMA06",61908.000,"cc",28308.416,6.00,2830.842,1,6,0.100,31769.000,0.200,25015.000,0.300,3607.000,0.500,909.000,1.000,608.000,5.000,0
"07/04/06","07:08:01","AMMA06",62658.000,"cc",28296.297,6.00,2829.630,1,6,0.100,32077.000,0.200,25346.000,0.300,3664.000,0.500,959.000,1.000,610.000,5.000,2.000
"07/04/06","07:08:07","AMMA06",62474.000,"cc",28338.016,6.00,2833.802,1,6,0.100,32039.000,0.200,25391.000,0.300,3551.000,0.500,909.000,1.000,582.000,5.000,2.000
"07/04/06","07:08:13","AMMA06",62706.000,"cc",28307.506,6.00,2830.751,1,6,0.100,32263.000,0.200,25321.000,0.300,3604.000,0.500,894.000,1.000,623.000,5.000,1.000
"07/04/06","07:08:19","AMMA06",62445.000,"cc",28325.613,6.00,2832.562,1,6,0.100,31836.000,0.200,25549.000,0.300,3503.000,0.500,956.000,1.000,601.000,5.000,0
"07/04/06","07:08:25","AMMA06",62828.000,"cc",28274.574,6.00,2827.458,1,6,0.100,32078.000,0.200,25659.000,0.300,3513.000,0.500,992.000,1.000,586.000,5.000,0
"07/04/06","07:08:31","AMMA06",62238.000,"cc",28325.475,6.00,2832.548,1,6,0.100,31969.000,0.200,25238.000,0.300,3451.000,0.500,1015.000,1.000,565.000,5.000,0
"07/04/06","07:08:37","AMMA06",62147.000,"cc",28363.914,6.00,2836.392,1,6,0.100,31645.000,0.200,25425.000,0.300,3575.000,0.500,906.000,1.000,595.000,5.000,1.000
"07/04/06","07:08:43","AMMA06",62192.000,"cc",28295.570,6.00,2829.557,1,6,0.100,31665.000,0.200,25499.000,0.300,3460.000,0.500,963.000,1.000,604.000,5.000,1.000
"07/04/06","07:08:49","AMMA06",61664.000,"cc",28311.322,6.00,2831.132,1,6,0.100,31559.000,0.200,25270.000,0.300,3399.000,0.500,866.000,1.000,570.000,5.000,0
"07/04/06","07:08:55","AMMA06",61987.000,"cc",28291.055,6.00,2829.106,1,6,0.100,31519.000,0.200,25445.000,0.300,3477.000,0.500,952.000,1.000,594.000,5.000,0
"07/04/06","07:09:01","AMMA06",62166.000,"cc",28361.162,6.00,2836.117,1,6,0.100,31822.000,0.200,25171.000,0.300,3600.000,0.500,939.000,1.000,634.000,5.000,0
"07/04/06","07:09:07","AMMA06",62108.000,"cc",28326.258,6.00,2832.626,1,6,0.100,31670.000,0.200,25427.000,0.300,3455.000,0.500,962.000,1.000,594.000,5.000,0
"07/04/06","07:09:13","AMMA06",62034.000,"cc",28314.102,6.00,2831.410,1,6,0.100,31590.000,0.200,25335.000,0.300,3576.000,0.500,960.000,1.000,573.000,5.000,0
"07/04/06","07:09:19","AMMA06",62230.000,"cc",28323.691,6.00,2832.369,1,6,0.100,31608.000,0.200,25605.000,0.300,3544.000,0.500,865.000,1.000,606.000,5.000,2.000
"07/04/06","07:09:25","AMMA06",62906.000,"cc",28278.315,6.00,2827.832,1,6,0.100,32220.000,0.200,25586.000,0.300,3573.000,0.500,983.000,1.000,544.000,5.000,0
"07/04/06","07:09:31","AMMA06",62804.000,"cc",28353.516,6.00,2835.352,1,6,0.100,31734.000,0.200,25939.000,0.300,3588.000,0.500,913.000,1.000,629.000,5.000,1.000
"07/04/06","07:09:37","AMMA06",62327.000,"cc",28355.346,6.00,2835.535,1,6,0.100,31449.000,0.200,25623.000,0.300,3682.000,0.500,944.000,1.000,629.000,5.000,0
"07/04/06","07:09:43","AMMA06",62111.000,"cc",28251.602,6.00,2825.160,1,6,0.100,31347.000,0.200,25639.000,0.300,3669.000,0.500,903.000,1.000,553.000,5.000,0
"07/04/06","07:09:49","AMMA06",62045.000,"cc",28372.606,6.00,2837.261,1,6,0.100,31454.000,0.200,25438.000,0.300,3671.000,0.500,895.000,1.000,587.000,5.000,0
"07/04/06","07:09:55","AMMA06",62203.000,"cc",28322.010,6.00,2832.201,1,6,0.100,31822.000,0.200,25201.000,0.300,3699.000,0.500,888.000,1.000,593.000,5.000,0
"07/04/06","07:10:01","AMMA06",62199.000,"cc",28308.758,6.00,2830.876,1,6,0.100,31682.000,0.200,25422.000,0.300,3635.000,0.500,881.000,1.000,579.000,5.000,0
"07/04/06","07:10:07","AMMA06",61755.000,"cc",28276.895,6.00,2827.690,1,6,0.100,31212.000,0.200,25505.000,0.300,3466.000,0.500,936.000,1.000,633.000,5.000,3.000
"07/04/06","07:10:13","AMMA06",62178.000,"cc",28332.342,6.00,2833.234,1,6,0.100,31582.000,0.200,25412.000,0.300,3636.000,0.500,963.000,1.000,585.000,5.000,0
"07/04/06","07:10:19","AMMA06",62127.000,"cc",28350.838,6.00,2835.084,1,6,0.100,31674.000,0.200,25176.000,0.300,3700.000,0.500,950.000,1.000,627.000,5.000,0
"07/04/06","07:10:25","AMMA06",61738.000,"cc",28304.717,6.00,2830.472,1,6,0.100,31377.000,0.200,25257.000,0.300,3597.000,0.500,898.000,1.000,609.000,5.000,0
"07/04/06","07:10:31","AMMA06",61235.000,"cc",28315.348,6.00,2831.535,1,6,0.100,31046.000,0.200,24987.000,0.300,3707.000,0.500,896.000,1.000,598.000,5.000,1.000
"07/04/06","07:10:37","AMMA06",60883.000,"cc",28298.084,6.00,2829.809,1,6,0.100,30926.000,0.200,24807.000,0.300,3631.000,0.500,925.000,1.000,594.000,5.000,0
"07/04/06","07:10:43","AMMA06",60961.000,"cc",28347.232,6.00,2834.723,1,6,0.100,30935.000,0.200,24881.000,0.300,3607.000,0.500,947.000,1.000,591.000,5.000,0
"07/04/06","07:10:49","AMMA06",61013.000,"cc",28291.979,6.00,2829.198,1,6,0.100,30890.000,0.200,24944.000,0.300,3623.000,0.500,948.000,1.000,608.000,5.000,0
"07/04/06","07:10:55","AMMA06",61119.000,"cc",28298.158,6.00,2829.816,1,6,0.100,31014.000,0.200,24992.000,0.300,3546.000,0.500,971.000,1.000,596.000,5.000,0
"07/04/06","07:11:01","AMMA06",60979.000,"cc",28314.781,6.00,2831.478,1,6,0.100,30908.000,0.200,24963.000,0.300,3610.000,0.500,893.000,1.000,605.000,5.000,0
"07/04/06","07:11:07","AMMA06",60490.000,"cc",28285.820,6.00,2828.582,1,6,0.100,30995.000,0.200,24444.000,0.300,3545.000,0.500,951.000,1.000,554.000,5.000,1.000
"07/04/06","07:11:13","AMMA06",60867.000,"cc",28339.977,6.00,2833.998,1,6,0.100,30911.000,0.200,24822.000,0.300,3596.000,0.500,965.000,1.000,573.000,5.000,0
"07/04/06","07:11:19","AMMA06",60823.000,"cc",28345.027,6.00,2834.503,1,6,0.100,30965.000,0.200,24716.000,0.300,3635.000,0.500,899.000,1.000,608.000,5.000,0
"07/04/06","07:11:25","AMMA06",60855.000,"cc",28323.148,6.00,2832.315,1,6,0.100,31231.000,0.200,24515.000,0.300,3512.000,0.500,952.000,1.000,644.000,5.000,1.000
"07/04/06","07:11:31","AMMA06",60720.000,"cc",28298.777,6.00,2829.878,1,6,0.100,31205.000,0.200,24514.000,0.300,3496.000,0.500,913.000,1.000,592.000,5.000,0
"07/04/06","07:11:37","AMMA06",60872.000,"cc",28322.539,6.00,2832.254,1,6,0.100,31331.000,0.200,24486.000,0.300,3586.000,0.500,943.000,1.000,526.000,5.000,0
"07/04/06","07:11:43","AMMA06",60618.000,"cc",28345.484,6.00,2834.549,1,6,0.100,31283.000,0.200,24363.000,0.300,3478.000,0.500,936.000,1.000,558.000,5.000,0
"07/04/06","07:11:49","AMMA06",60216.000,"cc",28296.879,6.00,2829.688,1,6,0.100,31191.000,0.200,24143.000,0.300,3380.000,0.500,921.000,1.000,581.000,5.000,0
"07/04/06","07:11:55","AMMA06",60491.000,"cc",28294.930,6.00,2829.493,1,6,0.100,30871.000,0.200,24595.000,0.300,3481.000,0.500,940.000,1.000,604.000,5.000,0
"07/04/06","07:12:01","AMMA06",60083.000,"cc",28326.541,6.00,2832.654,1,6,0.100,30915.000,0.200,24241.000,0.300,3453.000,0.500,918.000,1.000,556.000,5.000,0
"07/04/06","07:12:07","AMMA06",60275.000,"cc",28327.203,6.00,2832.721,1,6,0.100,31066.000,0.200,24218.000,0.300,3446.000,0.500,947.000,1.000,597.000,5.000,1.000
"07/04/06","07:12:13","AMMA06",59905.000,"cc",28316.275,6.00,2831.628,1,6,0.100,30798.000,0.200,24049.000,0.300,3537.000,0.500,938.000,1.000,582.000,5.000,1.000
"07/04/06","07:12:19","AMMA06",59955.000,"cc",28306.059,6.00,2830.606,1,6,0.100,30883.000,0.200,24128.000,0.300,3456.000,0.500,907.000,1.000,580.000,5.000,1.000
"07/04/06","07:12:25","AMMA06",60292.000,"cc",28327.367,6.00,2832.737,1,6,0.100,31002.000,0.200,24281.000,0.300,3467.000,0.500,947.000,1.000,595.000,5.000,0
"07/04/06","07:12:31","AMMA06",59929.000,"cc",28298.272,6.00,2829.827,1,6,0.100,30657.000,0.200,24293.000,0.300,3522.000,0.500,914.000,1.000,540.000,5.000,3.000
"07/04/06","07:12:37","AMMA06",59803.000,"cc",28366.951,6.00,2836.695,1,6,0.100,30599.000,0.200,24168.000,0.300,3514.000,0.500,934.000,1.000,587.000,5.000,1.000
"07/04/06","07:12:43","AMMA06",60207.000,"cc",28293.799,6.00,2829.380,1,6,0.100,30955.000,0.200,24351.000,0.300,3475.000,0.500,861.000,1.000,564.000,5.000,1.000
"07/04/06","07:12:49","AMMA06",60248.000,"cc",28304.955,6.00,2830.496,1,6,0.100,30839.000,0.200,24462.000,0.300,3462.000,0.500,935.000,1.000,550.000,5.000,0
"07/04/06","07:12:55","AMMA06",59926.000,"cc",28351.133,6.00,2835.114,1,6,0.100,30611.000,0.200,24185.000,0.300,3629.000,0.500,926.000,1.000,575.000,5.000,0
"07/04/06","07:13:01","AMMA06",59730.000,"cc",28282.615,6.00,2828.262,1,6,0.100,30571.000,0.200,24136.000,0.300,3499.000,0.500,952.000,1.000,571.000,5.000,1.000
"07/04/06","07:13:07","AMMA06",60302.000,"cc",28328.551,6.00,2832.855,1,6,0.100,30847.000,0.200,24573.000,0.300,3403.000,0.500,934.000,1.000,543.000,5.000,2.000
"07/04/06","07:13:13","AMMA06",60332.000,"cc",28300.654,6.00,2830.066,1,6,0.100,30991.000,0.200,24167.000,0.300,3624.000,0.500,907.000,1.000,642.000,5.000,1.000
"07/04/06","07:13:19","AMMA06",60365.000,"cc",28287.328,6.00,2828.733,1,6,0.100,30738.000,0.200,24455.000,0.300,3640.000,0.500,917.000,1.000,615.000,5.000,0
"07/04/06","07:13:25","AMMA06",59568.000,"cc",28325.703,6.00,2832.571,1,6,0.100,30644.000,0.200,23931.000,0.300,3534.000,0.500,908.000,1.000,551.000,5.000,0
"07/04/06","07:13:31","AMMA06",59907.000,"cc",28335.273,6.00,2833.528,1,6,0.100,30575.000,0.200,24344.000,0.300,3531.000,0.500,911.000,1.000,544.000,5.000,2.000
"07/04/06","07:13:37","AMMA06",59863.000,"cc",28305.346,6.00,2830.535,1,6,0.100,30653.000,0.200,24112.000,0.300,3610.000,0.500,925.000,1.000,563.000,5.000,0
"07/04/06","07:13:43","AMMA06",60258.000,"cc",28339.441,6.00,2833.944,1,6,0.100,30762.000,0.200,24450.000,0.300,3573.000,0.500,905.000,1.000,567.000,5.000,1.000
"07/04/06","07:13:49","AMMA06",60369.000,"cc",28342.018,6.00,2834.202,1,6,0.100,30655.000,0.200,24590.000,0.300,3604.000,0.500,936.000,1.000,584.000,5.000,0
"07/04/06","07:13:55","AMMA06",60263.000,"cc",28294.607,6.00,2829.461,1,6,0.100,30833.000,0.200,24284.000,0.300,3681.000,0.500,910.000,1.000,554.000,5.000,1.000
"07/04/06","07:14:01","AMMA06",60500.000,"cc",28327.172,6.00,2832.717,1,6,0.100,31035.000,0.200,24323.000,0.300,3702.000,0.500,902.000,1.000,538.000,5.000,0
"07/04/06","07:14:07","AMMA06",60465.000,"cc",28302.895,6.00,2830.290,1,6,0.100,31043.000,0.200,24249.000,0.300,3700.000,0.500,905.000,1.000,568.000,5.000,0